User: anonymous   Login
Location: NJAA Observatory
(40.6819°N, 74.8979°W)
Time: 04:43:08
(UTC-04:00)
Language:

Cosmos 1633 - Orbit

View from above orbital plane
View from above orbital plane
View from above satellite
View from above satellite

Ground track
Ground track

The orbit data is extracted from the following two-line orbital elements,

1 15592U 85020A   18113.72360036 +.00001347 +00000-0 +45801-4 0  9995
2 15592 082.5403 007.9479 0014008 151.7404 208.4599 15.29448314811465
Epoch (UTC): 23 April 2018 17:21:59
Eccentricity: 0.0014008
inclination: 82.5403°
perigee height: 468 km
apogee height: 487 km
right ascension of ascending node: 7.9479°
argument of perigee: 151.7404°
revolutions per day: 15.29448314
mean anomaly at epoch: 208.4599°
orbit number at epoch: 81146

The dashed part of the orbit path shows where the satellite is in the earth's shadow,  

DLR